OCN3HT EDDF-GCLP

Flight info

Callsign OCN3HT
Flight time N/A
Altitude 33000
Route SOBRA8E SOBRA Y180 DIK UN857 TOLVU DCT RAPOR DCT GIMER DCT AHVEC UN857 DISAK DCT ARKIP DCT ARNAV DCT LMG DCT UVELI DCT OSMOB DCT VAVIX DCT BTZ DCT URUNA DCT SSN DCT VRA DCT NEA L14 ADINO DCT ELVAR DCT BAROK UN873 SAMAR
Aircraft A320/M-SDE3FGHIRWY/LB1

Departure

Time 2026-05-01 13:38
Airport Frankfurt Main Airport (EDDF)

Arrival

Time N/A
Airport Gran Canaria Airport (GCLP)
Time Latitude Longitude Altitude Speed Heading
2026-05-01 12:44 50.04954 8.59079 363 ft 0 kts 160°
2026-05-01 13:07 50.04955 8.59079 389 ft 0 kts 160°
2026-05-01 13:10 50.04963 8.59075 366 ft 3 kts 159°
2026-05-01 13:10 50.04982 8.59063 363 ft 3 kts 154°
2026-05-01 13:10 50.05000 8.59048 360 ft 3 kts 148°
2026-05-01 13:10 50.05016 8.59030 360 ft 3 kts 134°
2026-05-01 13:11 50.05027 8.59007 359 ft 3 kts 96°
2026-05-01 13:11 50.05027 8.58990 363 ft 1 kts 69°
2026-05-01 13:11 50.05026 8.58986 364 ft 1 kts 69°
2026-05-01 13:19 50.05037 8.59031 359 ft 6 kts 69°
2026-05-01 13:20 50.05052 8.59094 362 ft 7 kts 70°
2026-05-01 13:20 50.05069 8.59166 362 ft 8 kts 70°
2026-05-01 13:20 50.05079 8.59248 360 ft 7 kts 99°
2026-05-01 13:21 50.05019 8.59325 363 ft 6 kts 159°
2026-05-01 13:21 50.04980 8.59347 367 ft 10 kts 159°
2026-05-01 13:21 50.04904 8.59405 368 ft 12 kts 148°
2026-05-01 13:21 50.04842 8.59480 370 ft 11 kts 139°
2026-05-01 13:22 50.04784 8.59557 371 ft 10 kts 142°
2026-05-01 13:22 50.04729 8.59595 374 ft 7 kts 163°
2026-05-01 13:22 50.04659 8.59615 374 ft 14 kts 174°
2026-05-01 13:22 50.04562 8.59621 375 ft 13 kts 178°
2026-05-01 13:23 50.04476 8.59627 376 ft 11 kts 178°
2026-05-01 13:23 50.04407 8.59630 376 ft 9 kts 178°
2026-05-01 13:23 50.04341 8.59634 376 ft 11 kts 178°
2026-05-01 13:23 50.04273 8.59638 376 ft 9 kts 178°
2026-05-01 13:24 50.04194 8.59624 375 ft 18 kts 191°
2026-05-01 13:24 50.04083 8.59565 375 ft 15 kts 198°
2026-05-01 13:24 50.03998 8.59503 374 ft 13 kts 212°
2026-05-01 13:25 50.03873 8.59283 367 ft 15 kts 244°
2026-05-01 13:25 50.03837 8.59143 370 ft 13 kts 250°
2026-05-01 13:25 50.03807 8.59019 369 ft 12 kts 250°
2026-05-01 13:25 50.03776 8.58886 364 ft 15 kts 250°
2026-05-01 13:26 50.03740 8.58734 360 ft 15 kts 249°
2026-05-01 13:26 50.03705 8.58591 362 ft 14 kts 250°
2026-05-01 13:26 50.03674 8.58460 365 ft 12 kts 250°
2026-05-01 13:26 50.03646 8.58343 364 ft 10 kts 249°
2026-05-01 13:27 50.03617 8.58220 363 ft 16 kts 250°
2026-05-01 13:27 50.03572 8.58034 363 ft 21 kts 250°
2026-05-01 13:27 50.03474 8.57621 362 ft 19 kts 250°
2026-05-01 13:28 50.03390 8.57270 363 ft 16 kts 250°
2026-05-01 13:28 50.03353 8.57115 354 ft 14 kts 249°
2026-05-01 13:29 50.03299 8.56857 356 ft 11 kts 278°
2026-05-01 13:29 50.03341 8.56672 355 ft 9 kts 250°
2026-05-01 13:30 50.03236 8.56234 347 ft 18 kts 249°
2026-05-01 13:31 50.03154 8.55890 353 ft 17 kts 249°
2026-05-01 13:31 50.03038 8.55405 347 ft 17 kts 249°
2026-05-01 13:32 50.02954 8.55052 336 ft 16 kts 250°
2026-05-01 13:33 50.02797 8.54784 340 ft 13 kts 243°
2026-05-01 13:33 50.02726 8.54492 336 ft 16 kts 249°
2026-05-01 13:34 50.02662 8.54178 336 ft 15 kts 252°
2026-05-01 13:34 50.02593 8.53890 332 ft 15 kts 249°
2026-05-01 13:35 50.02512 8.53549 332 ft 14 kts 250°
2026-05-01 13:35 50.02477 8.53402 334 ft 19 kts 250°
2026-05-01 13:35 50.02389 8.53036 332 ft 16 kts 250°
2026-05-01 13:36 50.02352 8.52882 331 ft 14 kts 250°
2026-05-01 13:36 50.02319 8.52752 331 ft 12 kts 250°
2026-05-01 13:36 50.02242 8.52604 335 ft 6 kts 178°
2026-05-01 13:37 50.02232 8.52604 335 ft 6 kts 179°
2026-05-01 13:37 50.01929 8.52608 333 ft 80 kts 179°
2026-05-01 13:37 50.01158 8.52618 332 ft 139 kts 179°
2026-05-01 13:37 50.00068 8.52600 592 ft 162 kts 176°
2026-05-01 13:38 49.97754 8.52733 1781 ft 180 kts 172°
2026-05-01 13:38 49.96450 8.52850 2002 ft 200 kts 173°
2026-05-01 13:38 49.94976 8.52972 2249 ft 220 kts 174°
2026-05-01 13:39 49.93441 8.53087 2851 ft 225 kts 174°
2026-05-01 13:39 49.91877 8.53196 3604 ft 226 kts 175°
2026-05-01 13:39 49.90305 8.53300 4438 ft 226 kts 175°
2026-05-01 13:39 49.88736 8.53399 5307 ft 226 kts 176°
2026-05-01 13:40 49.87165 8.53309 6037 ft 229 kts 190°
2026-05-01 13:40 49.85569 8.52523 6372 ft 253 kts 198°
2026-05-01 13:40 49.83865 8.51566 6887 ft 265 kts 198°
2026-05-01 13:40 49.82124 8.50573 7588 ft 269 kts 198°
2026-05-01 13:41 49.80351 8.49561 8320 ft 273 kts 198°
2026-05-01 13:41 49.78569 8.48506 9046 ft 277 kts 204°
2026-05-01 13:41 49.77027 8.46688 9741 ft 285 kts 229°
2026-05-01 13:41 49.76101 8.43944 10398 ft 295 kts 254°
2026-05-01 13:42 49.76012 8.40704 10709 ft 317 kts 279°
2026-05-01 13:42 49.76542 8.37261 10844 ft 340 kts 283°
2026-05-01 13:42 49.77150 8.33600 10970 ft 362 kts 283°
2026-05-01 13:42 49.77796 8.29725 11096 ft 382 kts 283°
2026-05-01 13:43 49.78470 8.25649 11242 ft 399 kts 283°
2026-05-01 13:43 49.79157 8.21451 11647 ft 406 kts 283°
2026-05-01 13:43 49.79847 8.17191 12169 ft 411 kts 283°
2026-05-01 13:43 49.80541 8.12871 12685 ft 415 kts 283°
2026-05-01 13:44 49.81231 8.08513 13182 ft 419 kts 283°
2026-05-01 13:44 49.81923 8.04113 13679 ft 423 kts 283°
2026-05-01 13:44 49.82623 7.99665 14171 ft 426 kts 283°
2026-05-01 13:44 49.83328 7.95193 14626 ft 429 kts 283°
2026-05-01 13:45 49.84036 7.90686 15084 ft 432 kts 283°
2026-05-01 13:45 49.84749 7.86152 15521 ft 434 kts 283°
2026-05-01 13:45 49.85464 7.81590 15983 ft 437 kts 283°
2026-05-01 13:45 49.86178 7.77001 16425 ft 439 kts 283°
2026-05-01 13:46 49.86899 7.72386 16873 ft 442 kts 283°
2026-05-01 13:46 49.87625 7.67755 17300 ft 444 kts 283°
2026-05-01 13:46 49.88353 7.63085 17735 ft 446 kts 282°
2026-05-01 13:46 49.89078 7.58396 18162 ft 449 kts 282°
2026-05-01 13:47 49.89795 7.53733 18557 ft 451 kts 282°
2026-05-01 13:47 49.90530 7.48926 18916 ft 453 kts 282°
2026-05-01 13:47 49.91247 7.44213 19275 ft 455 kts 282°
2026-05-01 13:47 49.91973 7.39427 19614 ft 457 kts 282°
2026-05-01 13:48 49.92704 7.34612 19958 ft 459 kts 282°
2026-05-01 13:48 49.93440 7.29778 20291 ft 461 kts 282°
2026-05-01 13:48 49.94179 7.24923 20623 ft 463 kts 283°
2026-05-01 13:48 49.94919 7.20049 20956 ft 465 kts 283°
2026-05-01 13:49 49.95657 7.15152 21269 ft 467 kts 282°
2026-05-01 13:49 49.96155 7.11832 21476 ft 468 kts 283°
2026-05-01 13:49 49.97129 7.05300 21872 ft 470 kts 282°
2026-05-01 13:49 49.97625 7.01950 22070 ft 472 kts 283°
2026-05-01 13:50 49.98361 6.96977 22346 ft 473 kts 283°
2026-05-01 13:50 49.99007 6.91961 22628 ft 474 kts 277°
2026-05-01 13:50 49.99216 6.86840 22908 ft 476 kts 269°
2026-05-01 13:50 49.99079 6.81700 23196 ft 477 kts 267°
2026-05-01 13:51 49.98921 6.76543 23464 ft 479 kts 267°
2026-05-01 13:51 49.98763 6.71365 23749 ft 480 kts 267°
2026-05-01 13:51 49.98606 6.66168 23999 ft 482 kts 267°
2026-05-01 13:51 49.98422 6.60963 24233 ft 483 kts 264°
2026-05-01 13:52 49.97858 6.55822 24453 ft 484 kts 255°
2026-05-01 13:52 49.96813 6.50854 24664 ft 484 kts 246°
2026-05-01 13:52 49.95463 6.46061 24917 ft 484 kts 245°
2026-05-01 13:52 49.94132 6.41348 25254 ft 482 kts 245°
2026-05-01 13:53 49.92796 6.36593 25605 ft 480 kts 246°
2026-05-01 13:53 49.90137 6.27113 26263 ft 478 kts 245°
2026-05-01 13:53 49.88782 6.22410 26592 ft 477 kts 245°
2026-05-01 13:54 49.87435 6.17720 26940 ft 476 kts 245°
2026-05-01 13:54 49.86004 6.13107 27275 ft 474 kts 239°
2026-05-01 13:54 49.84218 6.08832 27612 ft 472 kts 234°
2026-05-01 13:54 49.82326 6.04687 27946 ft 471 kts 234°
2026-05-01 13:55 49.80432 6.00552 28285 ft 470 kts 234°
2026-05-01 13:55 49.78538 5.96434 28631 ft 469 kts 233°
2026-05-01 13:55 49.76646 5.92332 28985 ft 468 kts 233°
2026-05-01 13:55 49.74835 5.88158 29303 ft 467 kts 239°
2026-05-01 13:56 49.73408 5.83652 29634 ft 467 kts 248°
2026-05-01 13:56 49.72304 5.78932 29959 ft 467 kts 250°
2026-05-01 13:56 49.71219 5.74218 30291 ft 466 kts 249°
2026-05-01 13:56 49.70126 5.69501 30578 ft 465 kts 249°
2026-05-01 13:57 49.69032 5.64813 30865 ft 463 kts 249°
2026-05-01 13:57 49.67936 5.60144 31153 ft 462 kts 249°
2026-05-01 13:57 49.66840 5.55492 31453 ft 460 kts 249°
2026-05-01 13:57 49.65749 5.50857 31759 ft 459 kts 249°
2026-05-01 13:58 49.64662 5.46246 32059 ft 457 kts 248°
2026-05-01 13:58 49.63578 5.41651 32364 ft 455 kts 248°
2026-05-01 13:58 49.62496 5.37066 32644 ft 454 kts 249°
2026-05-01 13:58 49.61451 5.32481 32929 ft 453 kts 250°
2026-05-01 13:59 49.60455 5.27877 33190 ft 452 kts 250°
2026-05-01 13:59 49.59491 5.23270 33257 ft 454 kts 250°
2026-05-01 13:59 49.57703 5.13984 33266 ft 455 kts 253°
2026-05-01 14:00 49.56111 5.04539 33266 ft 456 kts 254°
2026-05-01 14:00 49.54511 4.95092 33252 ft 456 kts 253°
2026-05-01 14:01 49.52829 4.85678 33264 ft 456 kts 252°
2026-05-01 14:01 49.51111 4.76277 33257 ft 456 kts 252°
2026-05-01 14:02 49.49405 4.66880 33255 ft 456 kts 252°
2026-05-01 14:02 49.47696 4.57483 33246 ft 456 kts 252°
2026-05-01 14:03 49.45980 4.48092 33239 ft 457 kts 252°
2026-05-01 14:03 49.44255 4.38696 33240 ft 457 kts 251°
2026-05-01 14:04 49.42525 4.29300 33235 ft 457 kts 251°
2026-05-01 14:04 49.40777 4.19912 33241 ft 457 kts 251°
2026-05-01 14:05 49.39014 4.10525 33239 ft 458 kts 251°
2026-05-01 14:05 49.37237 4.01146 33241 ft 457 kts 248°
2026-05-01 14:06 49.34456 3.92512 33238 ft 450 kts 233°
2026-05-01 14:06 49.30983 3.84539 33231 ft 450 kts 233°
2026-05-01 14:07 49.27525 3.76623 33215 ft 450 kts 233°
2026-05-01 14:08 49.22308 3.64672 33209 ft 450 kts 232°
2026-05-01 14:08 49.18825 3.56708 33208 ft 451 kts 232°
2026-05-01 14:09 49.15332 3.48755 33211 ft 451 kts 232°
2026-05-01 14:09 49.11825 3.40810 33208 ft 451 kts 232°
2026-05-01 14:10 49.08310 3.32861 33216 ft 452 kts 232°
2026-05-01 14:10 49.04787 3.24926 33211 ft 452 kts 231°
2026-05-01 14:11 49.01249 3.16995 33210 ft 452 kts 231°
2026-05-01 14:11 48.95945 3.05113 33219 ft 452 kts 231°
2026-05-01 14:12 48.92401 2.97197 33210 ft 452 kts 231°
2026-05-01 14:12 48.88849 2.89300 33211 ft 453 kts 231°
2026-05-01 14:13 48.85889 2.82745 33211 ft 453 kts 231°
2026-05-01 14:13 48.81719 2.73528 33217 ft 453 kts 231°
2026-05-01 14:14 48.78175 2.65698 33217 ft 453 kts 231°
2026-05-01 14:14 48.74602 2.57838 33217 ft 453 kts 231°
2026-05-01 14:15 48.71021 2.49995 33220 ft 453 kts 231°
2026-05-01 14:15 48.67431 2.42161 33213 ft 453 kts 230°
2026-05-01 14:16 48.63838 2.34344 33213 ft 453 kts 231°
2026-05-01 14:16 48.60195 2.26585 33211 ft 450 kts 225°
2026-05-01 14:17 48.55563 2.20459 33207 ft 439 kts 207°
2026-05-01 14:17 48.49998 2.16983 33202 ft 431 kts 190°
2026-05-01 14:18 48.44129 2.15089 33198 ft 432 kts 189°
2026-05-01 14:18 48.39236 2.13510 33195 ft 433 kts 190°
2026-05-01 14:19 48.32338 2.11282 33192 ft 434 kts 190°
2026-05-01 14:19 48.26359 2.10490 33193 ft 432 kts 174°
2026-05-01 14:20 48.17419 2.12310 33190 ft 433 kts 171°
2026-05-01 14:21 48.11406 2.12794 33191 ft 435 kts 185°
2026-05-01 14:21 48.05427 2.11643 33192 ft 437 kts 186°
2026-05-01 14:22 47.96366 2.09902 33198 ft 439 kts 187°
2026-05-01 14:22 47.90303 2.08746 33201 ft 440 kts 187°
2026-05-01 14:23 47.84227 2.07601 33201 ft 441 kts 187°
2026-05-01 14:23 47.78138 2.06441 33194 ft 442 kts 187°
2026-05-01 14:24 47.72035 2.05277 33190 ft 443 kts 188°
2026-05-01 14:24 47.65910 2.04122 33183 ft 444 kts 189°
2026-05-01 14:25 47.59984 2.01699 33179 ft 443 kts 202°
2026-05-01 14:25 47.54241 1.98351 33181 ft 444 kts 202°
2026-05-01 14:26 47.45585 1.93347 33189 ft 446 kts 203°
2026-05-01 14:27 47.39802 1.90016 33195 ft 446 kts 204°
2026-05-01 14:27 47.34013 1.86677 33203 ft 447 kts 204°
2026-05-01 14:28 47.25315 1.81682 33200 ft 447 kts 204°
2026-05-01 14:28 47.19511 1.78364 33203 ft 448 kts 204°
2026-05-01 14:29 47.13696 1.75076 33204 ft 448 kts 204°
2026-05-01 14:30 47.02051 1.68550 33217 ft 448 kts 204°
2026-05-01 14:31 46.93358 1.63683 33224 ft 448 kts 204°
2026-05-01 14:31 46.87541 1.60440 33219 ft 447 kts 204°
2026-05-01 14:32 46.81693 1.57176 33228 ft 447 kts 204°
2026-05-01 14:32 46.75919 1.53960 33222 ft 447 kts 204°
2026-05-01 14:33 46.70438 1.49906 33218 ft 440 kts 218°
2026-05-01 14:33 46.65445 1.44730 33216 ft 440 kts 218°
2026-05-01 14:34 46.60463 1.39546 33208 ft 440 kts 218°
2026-05-01 14:34 46.55470 1.34378 33211 ft 441 kts 217°
2026-05-01 14:35 46.50469 1.29220 33213 ft 441 kts 217°
2026-05-01 14:35 46.45471 1.24073 33217 ft 441 kts 217°
2026-05-01 14:36 46.40470 1.18933 33219 ft 441 kts 217°
2026-05-01 14:36 46.35463 1.13795 33218 ft 441 kts 217°
2026-05-01 14:37 46.30455 1.08672 33220 ft 441 kts 217°
2026-05-01 14:37 46.25442 1.03564 33220 ft 441 kts 216°
2026-05-01 14:38 46.20426 0.98456 33225 ft 441 kts 216°
2026-05-01 14:38 46.15410 0.93359 33220 ft 441 kts 216°
2026-05-01 14:39 46.10387 0.88273 33218 ft 441 kts 216°
2026-05-01 14:39 46.06212 0.84055 33220 ft 441 kts 216°
2026-05-01 14:40 46.01194 0.78989 33220 ft 441 kts 216°
2026-05-01 14:40 45.96170 0.73928 33212 ft 441 kts 216°
2026-05-01 14:41 45.91140 0.68885 33208 ft 441 kts 216°
2026-05-01 14:41 45.86114 0.63852 33202 ft 440 kts 216°
2026-05-01 14:42 45.81093 0.58816 33191 ft 441 kts 216°
2026-05-01 14:42 45.76066 0.53783 33187 ft 441 kts 216°
2026-05-01 14:43 45.71030 0.48772 33186 ft 441 kts 215°
2026-05-01 14:43 45.65988 0.43772 33185 ft 441 kts 215°
2026-05-01 14:44 45.60947 0.38780 33187 ft 441 kts 215°
2026-05-01 14:44 45.53380 0.31303 33182 ft 441 kts 215°
2026-05-01 14:45 45.45808 0.23832 33179 ft 441 kts 215°
2026-05-01 14:46 45.40757 0.18863 33178 ft 441 kts 215°
2026-05-01 14:46 45.33164 0.11444 33178 ft 442 kts 215°
2026-05-01 14:47 45.28102 0.06496 33180 ft 442 kts 215°
2026-05-01 14:48 45.20502 -0.00907 33178 ft 442 kts 215°
2026-05-01 14:48 45.12896 -0.08299 33176 ft 442 kts 215°
2026-05-01 14:49 45.02777 -0.18106 33175 ft 443 kts 215°
2026-05-01 14:50 44.92590 -0.27893 33172 ft 443 kts 214°
2026-05-01 14:51 44.84941 -0.35233 33166 ft 443 kts 215°
2026-05-01 14:52 44.77289 -0.42573 33164 ft 444 kts 215°
2026-05-01 14:53 44.69618 -0.49883 33159 ft 444 kts 215°
2026-05-01 14:53 44.64501 -0.54753 33161 ft 444 kts 215°
2026-05-01 14:54 44.59373 -0.59612 33167 ft 445 kts 214°
2026-05-01 14:54 44.54242 -0.64466 33171 ft 445 kts 215°
2026-05-01 14:55 44.49109 -0.69320 33166 ft 445 kts 214°
2026-05-01 14:55 44.43969 -0.74158 33165 ft 445 kts 214°
2026-05-01 14:56 44.38826 -0.78996 33163 ft 446 kts 215°
2026-05-01 14:56 44.33679 -0.83824 33159 ft 446 kts 215°
2026-05-01 14:57 44.28530 -0.88650 33162 ft 446 kts 215°
2026-05-01 14:57 44.20799 -0.95866 33159 ft 446 kts 214°
2026-05-01 14:58 44.15640 -1.00668 33159 ft 446 kts 215°
2026-05-01 14:58 44.10480 -1.05467 33164 ft 446 kts 214°
2026-05-01 14:59 44.05321 -1.10264 33163 ft 446 kts 215°
2026-05-01 14:59 44.00160 -1.15052 33161 ft 446 kts 214°
2026-05-01 15:00 43.92408 -1.22196 33150 ft 446 kts 214°
2026-05-01 15:01 43.87273 -1.26917 33162 ft 446 kts 214°
2026-05-01 15:01 43.82106 -1.31665 33155 ft 446 kts 214°
2026-05-01 15:02 43.76934 -1.36396 33150 ft 446 kts 214°
2026-05-01 15:02 43.71759 -1.41125 33143 ft 446 kts 214°
2026-05-01 15:03 43.66582 -1.45858 33132 ft 446 kts 214°
2026-05-01 15:03 43.61395 -1.50580 33130 ft 447 kts 214°
2026-05-01 15:04 43.56204 -1.55305 33114 ft 447 kts 214°
2026-05-01 15:04 43.51007 -1.60028 33119 ft 448 kts 214°
2026-05-01 15:05 43.45805 -1.64744 33133 ft 448 kts 214°
2026-05-01 15:05 43.40586 -1.69448 33124 ft 448 kts 214°
2026-05-01 15:06 43.35643 -1.74625 33127 ft 447 kts 227°
2026-05-01 15:06 43.31916 -1.81414 33119 ft 446 kts 237°
2026-05-01 15:07 43.28352 -1.88387 33121 ft 447 kts 234°
2026-05-01 15:07 43.24553 -1.95148 33097 ft 448 kts 233°
2026-05-01 15:08 43.20725 -2.01887 33101 ft 448 kts 233°
2026-05-01 15:08 43.16942 -2.08666 33100 ft 448 kts 234°
2026-05-01 15:09 43.13199 -2.15427 33106 ft 448 kts 234°
2026-05-01 15:09 43.09427 -2.22223 33109 ft 448 kts 233°
2026-05-01 15:10 43.05649 -2.29006 33115 ft 448 kts 233°
2026-05-01 15:10 42.99986 -2.39141 33134 ft 447 kts 233°
2026-05-01 15:11 42.94326 -2.49221 33141 ft 445 kts 233°
2026-05-01 15:12 42.90557 -2.55901 33148 ft 444 kts 233°
2026-05-01 15:12 42.84912 -2.65900 33148 ft 443 kts 233°
2026-05-01 15:14 42.75506 -2.82480 33141 ft 442 kts 232°
2026-05-01 15:14 42.69891 -2.92418 33131 ft 441 kts 233°
2026-05-01 15:15 42.62524 -3.05740 33123 ft 440 kts 233°
2026-05-01 15:16 42.55120 -3.18958 33122 ft 439 kts 232°
2026-05-01 15:18 42.45875 -3.35415 33147 ft 438 kts 232°
2026-05-01 15:19 42.38466 -3.48509 33172 ft 438 kts 232°
2026-05-01 15:19 42.32912 -3.58307 33170 ft 437 kts 232°
2026-05-01 15:20 42.27362 -3.68079 33172 ft 437 kts 232°
2026-05-01 15:21 42.23650 -3.74564 33160 ft 436 kts 232°
2026-05-01 15:21 42.19969 -3.80999 33150 ft 436 kts 232°
2026-05-01 15:22 42.14406 -3.90694 33131 ft 436 kts 232°
2026-05-01 15:22 42.10703 -3.97146 33127 ft 435 kts 232°
2026-05-01 15:23 42.06995 -4.03589 33123 ft 435 kts 232°
2026-05-01 15:23 42.03266 -4.09995 33127 ft 435 kts 229°
2026-05-01 15:24 41.98838 -4.15526 33122 ft 435 kts 222°
2026-05-01 15:24 41.94267 -4.20864 33129 ft 435 kts 222°
2026-05-01 15:25 41.89707 -4.26201 33131 ft 435 kts 222°
2026-05-01 15:25 41.85147 -4.31534 33132 ft 435 kts 222°
2026-05-01 15:26 41.81326 -4.35993 33131 ft 435 kts 222°
2026-05-01 15:26 41.76763 -4.41302 33138 ft 434 kts 222°
2026-05-01 15:27 41.72226 -4.46564 33138 ft 434 kts 223°
2026-05-01 15:28 41.65381 -4.54491 33153 ft 434 kts 223°
2026-05-01 15:28 41.60818 -4.59767 33155 ft 433 kts 223°
2026-05-01 15:29 41.53972 -4.67653 33157 ft 433 kts 223°
2026-05-01 15:30 41.44856 -4.78124 33158 ft 432 kts 223°
2026-05-01 15:31 41.31210 -4.93729 33144 ft 430 kts 224°
2026-05-01 15:32 41.22130 -5.04051 33146 ft 429 kts 224°
2026-05-01 15:34 41.08543 -5.19431 33149 ft 427 kts 224°